This demonstration page uses our WeatherBlox Daily Observations layout. Learn more.

Left ArrowRight Arrow

34.74481, -87.66753

Hourly Observations for May 22, 2017

Temp ( °F °C ) Dew Point ( °F °C ) Humidity (%) Winds ( mph kmh ) Pressure ( in mb ) Visibility ( mi km ) Precip ( " mm )
12:53 am 00:53 Clear 69 20.6 61 16.1 76 76 Calm 30.07 1018 10 16 0.00 0.00
1:53 am 01:53 Clear 68 20 61 16.1 78 78 Calm 30.08 1019 10 16 0.00 0.00
2:53 am 02:53 Clear 67 19.4 59 15 76 76 Calm 30.07 1018 10 16 0.00 0.00
3:53 am 03:53 Mostly Cloudy 67 19.4 57 13.9 71 71 VRB 5 7 30.07 1018 10 16 0.00 0.00
4:53 am 04:53 Mostly Cloudy 66 18.9 57 13.9 73 73 N 3 6 30.10 1019 10 16 0.00 0.00
5:53 am 05:53 Sunny 65 18.3 56 13.3 73 73 VRB 3 6 30.09 1019 10 16 0.00 0.00
6:53 am 06:53 Mostly Cloudy 65 18.3 56 13.3 73 73 Calm 30.11 1020 10 16 0.00 0.00
7:53 am 07:53 Mostly Cloudy 67 19.4 56 13.3 68 68 VRB 7 11 30.11 1020 10 16 0.00 0.00
8:53 am 08:53 Sunny 68 20 55 12.8 63 63 ENE 12 19 30.11 1020 10 16 0.00 0.00
9:53 am 09:53 Sunny 71 21.7 56 13.3 59 59 ENE 7 11 30.10 1019 10 16 0.00 0.00
10:53 am 10:53 Sunny 72 22.2 57 13.9 59 59 NE 7 11 30.10 1019 10 16 0.00 0.00
11:53 am 11:53 Mostly Sunny 75 23.9 57 13.9 54 54 VRB 5 7 30.08 1019 10 16 0.00 0.00
12:53 pm 12:53 Sunny 76 24.4 58 14.4 54 54 ENE 5 7 30.06 1018 10 16 0.00 0.00
1:53 pm 13:53 Sunny 77 25 58 14.4 52 52 Calm 30.04 1017 10 16 0.00 0.00
2:53 pm 14:53 Sunny 78 25.6 58 14.4 50 50 VRB 5 7 29.99 1016 10 16 0.00 0.00
3:53 pm 15:53 Sunny 77 25 57 13.9 50 50 VRB 3 6 29.98 1015 10 16 0.00 0.00
4:53 pm 16:53 Mostly Sunny 75 23.9 58 14.4 55 55 Calm 29.96 1015 10 16 0.00 0.00
5:53 pm 17:53 Sunny 74 23.3 59 15 60 60 Calm 29.96 1014 10 16 0.00 0.00
6:53 pm 18:53 Sunny 73 22.8 59 15 62 62 ENE 3 6 29.93 1014 10 16 0.00 0.00
7:53 pm 19:53 Mostly Cloudy 71 21.7 61 16.1 71 71 Calm 29.95 1014 10 16 0.00 0.00
8:53 pm 20:53 Clear 70 21.1 63 17.2 79 79 Calm 29.93 1014 10 16 0.00 0.00
9:53 pm 21:53 Cloudy 68 20 64 17.8 87 87 Calm 29.93 1013 10 16 0.00 0.00
10:53 pm 22:53 Partly Cloudy 69 20.6 63 17.2 81 81 Calm 29.91 1013 10 16 0.00 0.00
11:53 pm 23:53 Cloudy 69 20.6 63 17.2 81 81 Calm 29.90 1013 10 16 0.00 0.00

Powered by AerisWeather